Regional Weather Roundup
Issued by NWS Binghamton, NY

Home | Current Version | Previous Version | Text Only | Print | Product List | Glossary On
Versions: 1 2 3 4 5 6 7 8 9 10 11 12 13 14 15 16 17 18 19 20 21 22 23 24 25 26 27 28 29 30 31 32 33 34 35 36 37 38 39 40 41 42 43 44 45 46 47 48 49 50
000
ASUS41 KBGM 232310
RWRBGM
RWRBGM
BINGHAMTON REGIONAL WEATHER ROUNDUP
NATIONAL WEATHER SERVICE BINGHAMTON NY
700 PM EDT TUE SEP 23 2014

Note: "fair" indicates few or no clouds below 12,000 feet with no
significant weather and/or obstructions to visibility.

* = Station(s) that does not report precipitation, such as rain,
snow, etc, also no thunder or fog.

!NYZ009-015>018-022>025-036-037-044>046-055>057-062-240000
...CENTRAL NEW YORK...

CITY           SKY/WX    TMP DP  RH WIND       PRES   REMARKS
BINGHAMTON     CLEAR     64  47  53 N3        30.36R
CORTLAND       FAIR      57  52  82 CALM      30.37R
DANSVILLE      CLEAR     65  52  62 NW3       30.35R
ELMIRA         CLEAR     60  53  77 NE5       30.34R
ITHACA         CLEAR     59  55  86 CALM      30.37R
HAMILTON       CLEAR     57  54  88 CALM      30.36R
MONTICELLO     CLEAR     61  48  63 W6        30.36R
NORWICH        CLEAR     57  52  82 CALM      30.36R
PENN YAN       CLEAR     61  53  75 SE5       30.35R
ROME           CLOUDY    64  50  60 SW5       30.36R
SIDNEY         CLEAR     57  55  94 CALM      30.35R
SYRACUSE       PTCLDY    66  49  54 W5        30.34R
$$

!PAZ038>040-043-044-047-048-072-240000
...NORTHEAST PENNSYLVANIA...

CITY           SKY/WX    TMP DP  RH WIND       PRES   REMARKS
HAZLETON       CLEAR     61  46  59 CALM      30.38R
SCRANTON       CLEAR     66  48  52 N5        30.34R
$$
&&
KEY
WCI = WIND CHILL INDEX
VSB = VISIBILITY
HX  = HEAT INDEX
$$


USA.gov is the U.S. government's official web portal to all federal, state and local government web resources and services.